sat.trackr.live / text

‹ back to catalog

STARLINK-30441

NORAD 57869 · 2023-144F

PAYLOAD ACTIVE UNKNOWN

§ Identity

Operator
Country
US
Launch date
2023-09-16
Launch site
AFETR
Launch vehicle
Mass (kg)
RCS (m²)

Purposes: comms

External: N2YO · Heavens-Above · Gunter

§ Orbital elements

Epoch: 2026-05-25T05:12:41.773824Z

Period
94.27 min
Inclination
43.0015°
Eccentricity
0.0001438
Mean motion
15.27572722 rev/d
Perigee alt
482.1 km
Apogee alt
484.1 km
Semi-major
6,861.2 km
B*
3.3780e-5
RAAN
212.7754°
Arg perigee
281.6203°
Mean anomaly
78.4487°
Rev number
14,930

§ Raw data

STARLINK-304411 57869U 23144F   26145.21715016  .00000667  00000+0  33780-4 0  99932 57869  43.0015 212.7754 0001438 281.6203  78.4487 15.27572722149301

JSON: /api/v1/satellites/57869 · /tle

For live sub-satellite position, see the globe view (requires WebGL).

§ Visibility from observer

Set your observer location to see the next 7 days of passes ≥ 10°. The values pass through the URL so the page stays shareable.

No JS? Fill the form by hand. The geolocation button needs JavaScript.